Regional Weather Roundup
Issued by NWS Charleston, WV

Home | Current Version | Previous Version | Graphics & Text | Print | Product List | Glossary On
Versions: 1 2 3 4 5 6 7 8 9 10 11 12 13 14 15 16 17 18 19 20 21 22 23 24 25 26 27 28 29 30 31 32 33 34 35 36 37 38 39 40 41 42 43 44 45 46 47 48 49 50
000
ASUS41 KRLX 010310
RWRRLX
West Virginia Regional Weather Roundup
National Weather Service Charleston WV
1100 PM EDT TUE JUN 30 2015

Note: "fair" indicates few or no clouds below 12,000 feet with no
significant weather and/or obstructions to visibility.

WVZ003-010400-
Northern Panhandle of West Virginia

CITY           SKY/WX    TMP DP  RH WIND       PRES   REMARKS
WHEELING       MOCLDY    61  59  93 SW7       29.87R
$$

WVZ009-010400-
Northwest West Virginia

CITY           SKY/WX    TMP DP  RH WIND       PRES   REMARKS
PARKERSBURG    PTCLDY    61  59  94 S5        29.93R
$$

WVZ006-010400-
Western West Virginia

CITY           SKY/WX    TMP DP  RH WIND       PRES   REMARKS
HUNTINGTON     CLOUDY    62  61  96 W8        29.92R FOG
$$

WVZ015-010400-
West Central West Virginia

CITY           SKY/WX    TMP DP  RH WIND       PRES   REMARKS
CHARLESTON     CLOUDY    63  60  90 NW7       29.89F
$$

WVZ022-031-010400-
North Central West Virginia

CITY           SKY/WX    TMP DP  RH WIND       PRES   REMARKS
CLARKSBURG     CLOUDY    61  59  93 S3        29.91R
MORGANTOWN     CLOUDY    63  59  87 S3        29.91R
$$

WVZ025-035-042-045-010400-
Southern West Virginia

CITY           SKY/WX    TMP DP  RH WIND       PRES   REMARKS
BECKLEY        RAIN      60  57  89 SW6       30.04R FOG
LOGAN          MOCLDY    61  61 100 CALM      29.90F FOG
BLUEFIELD      LGT RAIN  63  58  83 W6        30.06R
LEWISBURG      LGT RAIN  62  58  88 CALM      30.01R
$$

WVZ047-010400-
Northern Mountains of West Virginia

CITY           SKY/WX    TMP DP  RH WIND       PRES   REMARKS
ELKINS         CLOUDY    60  56  86 SE8       29.95R
$$

WVZ052-010400-
Eastern Panhandle of West Virginia

CITY           SKY/WX    TMP DP  RH WIND       PRES   REMARKS
MARTINSBURG    LGT RAIN  68  64  87 CALM      29.83F
PETERSBURG     CLOUDY    69  58  68 CALM      29.89R
$$


USA.gov is the U.S. government's official web portal to all federal, state and local government web resources and services.